This is the latest recevied weather packets stored in our database for station/object KB1WCR. If no packets are shown the sender has not sent any weather packets the latest 10 day(s).
| Time | Temp. | Humidity | Pressure | Rain* | Wind** | Luminosity | Snow |
|---|---|---|---|---|---|---|---|
| 1778189680 | 16.67° C | 39% | 1004.2 hPa | 0 mm | - | 100 W/m² | - |
| 1778189377 | 17.22° C | 36% | 1004.1 hPa | 0 mm | - | 282 W/m² | - |
| 1778189067 | 16.67° C | 35% | 1004.2 hPa | 0 mm | - | 331 W/m² | - |
| 1778188765 | 16.67° C | 35% | 1004.3 hPa | 0 mm | - | 328 W/m² | - |
| 1778188461 | 16.67° C | 36% | 1004.3 hPa | 0 mm | - | 332 W/m² | - |
| 1778188158 | 17.22° C | 35% | 1004 hPa | 0 mm | - | 333 W/m² | - |
| 1778187855 | 16.67° C | 38% | 1004.2 hPa | 0 mm | - | 362 W/m² | - |
| 1778187552 | 16.11° C | 37% | 1004.3 hPa | 0 mm | - | 385 W/m² | - |
| 1778187249 | 15.56° C | 36% | 1004.1 hPa | 0 mm | - | 104 W/m² | - |
| 1778186945 | 17.22° C | 35% | 1003.9 hPa | 0 mm | - | 121 W/m² | - |
| 1778186641 | 16.67° C | 37% | 1004.2 hPa | 0 mm | - | 413 W/m² | - |
| 1778186339 | 17.22° C | 38% | 1004 hPa | 0 mm | - | 443 W/m² | - |
| 1778186037 | 16.67° C | 36% | 1003.9 hPa | 0 mm | - | 487 W/m² | - |
| 1778185733 | 16.11° C | 37% | 1004.2 hPa | 0 mm | - | 129 W/m² | - |
| 1778185430 | 16.11° C | 37% | 1003.9 hPa | 0 mm | - | 110 W/m² | - |
| 1778185125 | 16.11° C | 38% | 1003.8 hPa | 0 mm | - | 336 W/m² | - |
| 1778184821 | 16.67° C | 37% | 1003.9 hPa | 0 mm | - | 483 W/m² | - |
| 1778184517 | 16.67° C | 38% | 1004.1 hPa | 0 mm | - | 120 W/m² | - |
| 1778184213 | 16.67° C | 39% | 1004 hPa | 0 mm | - | 525 W/m² | - |
| 1778183910 | 17.22° C | 39% | 1004.1 hPa | 0 mm | - | 537 W/m² | - |
| 1778183607 | 17.22° C | 38% | 1004.1 hPa | 0 mm | - | 548 W/m² | - |
| 1778183304 | 16.67° C | 41% | 1004 hPa | 0 mm | - | 568 W/m² | - |
| 1778183000 | 15.56° C | 40% | 1004.1 hPa | 0 mm | - | 620 W/m² | - |
| 1778182697 | 16.67° C | 39% | 1004.3 hPa | 0 mm | - | 164 W/m² | - |
| 1778182394 | 16.67° C | 41% | 1004.1 hPa | 0 mm | - | 663 W/m² | - |
* Rain latest hour (hover to see other rain measurements)
** Current wind speed in m/s (hover to see current wind gust speed)